Location: Newark
(59.8814°N, 10.8258°E)
Time: 11:03:35
(UTC+00:00)

Envisat - Pass Details

Date: 29 January 2020
Orbit: 764 x 766 km, 98.1° (Epoch: 20 February)

Event Time Altitude Azimuth Distance (km) Brightness Sun altitude
Rises 05:18:35 0° 19° (NNE) 3,249 6.4 -16.9°
Reaches altitude 10° 05:21:08 10° 29° (NNE) 2,317 5.8 -16.6°
Maximum altitude 05:25:43 32° 93° (E) 1,288 4.9 -16.1°
Drops below altitude 10° 05:30:16 10° 157° (SSE) 2,302 5.9 -15.5°
Sets 05:32:47 0° 167° (SSE) 3,224 6.5 -15.2°
